Date,TemperatureHighF,TemperatureAvgF,TemperatureLowF,DewpointHighF,DewpointAvgF,DewpointLowF,HumidityHigh,HumidityAvg,HumidityLow,PressureMaxIn,PressureMinIn,WindSpeedMaxMPH,WindSpeedAvgMPH,GustSpeedMaxMPH,PrecipitationSumIn
2013-1-1,25.0,17.8,10.0,20.8,15.3,8.6,94,90,84,30.29,30.14,13,3,13,0.00
2013-1-2,29.1,18.4,8.6,26.1,15.8,7.3,94,90,80,30.23,30.11,13,4,13,0.00
2013-1-3,32.7,25.3,14.9,29.4,22.4,12.8,94,89,84,30.35,30.14,13,3,13,0.00
2013-1-4,37.0,23.6,11.3,32.5,21.2,10.0,100,90,84,30.32,30.23,14,4,14,0.00
2013-1-5,36.7,34.7,26.6,36.7,32.6,24.3,100,92,84,30.23,30.00,13,5,13,0.00
2013-1-6,36.7,26.9,20.1,36.7,23.9,17.0,100,89,84,30.35,30.00,18,4,18,0.00
2013-1-7,41.5,30.3,20.1,36.0,27.3,17.0,94,88,80,30.35,30.11,22,5,22,0.00
2013-1-8,45.9,36.9,29.7,39.1,32.3,26.4,88,84,77,30.17,30.09,14,5,14,0.00
2013-1-9,52.3,40.1,32.5,44.1,34.9,29.2,88,82,74,30.50,30.08,16,3,16,0.00
2013-1-10,52.0,38.3,28.6,52.0,35.2,25.4,100,89,80,30.50,29.82,12,3,12,1.02
2013-1-11,58.3,53.2,49.5,55.4,51.7,48.8,100,95,77,29.85,29.73,19,6,19,0.55
2013-1-12,53.1,41.4,27.0,50.5,37.9,25.4,100,88,74,30.03,29.76,18,6,18,0.00
2013-1-13,26.8,19.6,12.9,26.6,17.6,11.6,100,92,88,30.32,29.94,13,4,13,0.00
2013-1-14,26.8,17.3,11.7,24.5,15.0,10.2,94,91,84,30.47,30.29,10,1,10,0.00
2013-1-15,32.0,21.3,14.2,28.7,18.8,12.0,100,90,84,30.44,30.14,8,1,8,0.00
2013-1-16,37.6,28.4,15.8,33.2,25.0,13.6,94,87,84,30.14,29.91,17,4,17,0.00
2013-1-17,35.8,30.0,21.9,32.2,26.8,18.8,98,88,80,30.44,30.11,20,4,20,0.00
2013-1-18,46.4,34.9,21.2,39.6,30.6,18.1,94,84,77,30.44,30.03,22,6,22,0.00
2013-1-19,55.0,43.3,30.6,45.5,37.1,27.3,88,79,70,30.11,29.85,22,6,22,0.00
2013-1-20,30.6,19.2,14.4,27.1,16.3,12.2,91,89,80,30.35,30.11,20,5,20,0.00
2013-1-21,15.4,9.6,4.3,13.1,8.2,3.0,94,94,91,30.35,30.23,19,5,19,0.00
2013-1-22,17.8,9.0,1.2,15.4,7.6,0.0,94,93,91,30.41,30.32,41,2,41,0.00
2013-1-23,34.5,20.9,12.9,31.2,18.2,11.6,94,89,80,30.35,30.11,23,4,24,0.00
2013-1-24,24.6,16.8,6.8,20.3,14.4,5.6,94,90,84,30.59,30.29,17,4,17,0.00
2013-1-25,38.3,27.5,20.3,33.7,24.0,17.2,91,87,80,30.29,30.03,17,5,17,0.00
2013-1-26,34.0,23.0,11.7,30.5,20.2,10.4,94,89,80,30.41,30.23,16,3,16,0.00
2013-1-27,46.6,33.3,27.0,46.4,31.1,21.8,100,92,80,30.35,29.91,17,6,17,0.04
2013-1-28,59.2,51.8,46.6,59.2,51.8,46.6,100,100,100,29.97,29.82,15,3,15,0.00
2013-1-29,65.7,58.8,53.2,65.7,58.8,53.2,100,100,100,29.82,29.47,19,4,19,2.24
2013-1-30,53.4,33.7,18.5,53.4,33.7,17.9,100,100,98,29.79,29.32,17,2,17,0.43
2013-1-31,21.9,15.1,4.1,21.9,14.5,2.9,100,97,91,30.29,29.79,0,0,0,0.00
2013-2-1,21.2,13.6,1.4,20.5,11.7,0.2,100,92,88,30.41,30.17,0,0,0,0.00
2013-2-2,28.8,21.3,16.5,28.8,21.0,16.0,100,99,94,30.17,30.03,0,0,0,0.00
2013-2-3,30.9,23.9,16.9,27.6,22.6,16.4,100,95,88,30.11,29.97,14,0,14,0.00
2013-2-4,39.4,29.0,20.3,34.6,26.4,20.1,100,90,80,30.03,29.82,15,4,15,0.00
2013-2-5,42.1,30.6,19.2,36.5,28.7,19.2,100,93,80,30.11,29.85,15,4,15,0.00
2013-2-6,46.0,35.9,25.3,39.2,32.7,25.3,100,89,77,30.23,30.11,11,3,11,0.00
2013-2-7,38.7,36.8,34.9,38.7,36.8,34.9,100,100,100,30.06,29.88,17,4,17,0.98
2013-2-8,34.9,28.8,26.1,34.7,28.6,26.1,100,99,98,30.38,30.03,20,4,20,0.00
2013-2-9,36.7,31.9,27.0,35.8,31.1,27.0,100,97,84,30.38,30.06,13,5,13,0.00
2013-2-10,50.7,43.2,36.3,50.7,43.0,34.9,100,99,74,30.09,29.55,18,8,18,0.83
2013-2-11,38.8,34.0,29.5,34.4,30.4,26.2,88,87,84,30.11,29.79,24,8,24,0.00
2013-2-12,41.9,31.6,24.4,36.3,28.9,22.7,100,90,80,30.14,29.94,11,2,11,0.00
2013-2-13,50.2,35.8,27.0,41.9,32.7,26.8,100,89,74,29.94,29.79,11,2,11,0.00
2013-2-14,42.4,37.7,33.1,36.9,34.0,30.0,100,86,80,30.03,29.73,17,4,17,0.00
2013-2-15,37.0,28.8,20.8,34.0,26.2,17.7,100,90,80,30.26,30.03,18,5,18,0.00
2013-2-16,31.1,21.2,13.3,27.8,18.4,12.0,94,89,80,30.23,30.14,16,4,16,0.00
2013-2-17,38.3,26.1,13.6,33.9,23.1,12.0,94,89,84,30.23,29.94,15,5,15,0.00
2013-2-18,54.1,40.8,25.0,50.5,37.3,25.0,100,88,70,29.94,29.52,22,8,22,0.31
2013-2-19,25.7,19.0,13.1,24.8,16.9,11.8,100,92,84,30.26,29.79,25,8,25,0.31
2013-2-20,25.7,15.5,5.7,23.4,13.6,4.5,98,92,84,30.38,30.26,18,4,18,0.00
2013-2-21,29.3,23.5,15.1,27.9,22.5,15.1,100,96,88,30.35,29.91,27,4,27,0.00
2013-2-22,34.3,30.2,26.4,34.3,29.8,26.2,100,99,88,30.00,29.79,13,1,13,0.00
2013-2-23,33.1,26.2,21.0,29.8,24.1,19.7,100,92,88,30.03,29.97,10,1,10,0.00
2013-2-24,39.9,29.3,17.4,34.6,26.6,17.0,100,90,80,30.14,30.00,8,1,8,0.12
2013-2-25,47.5,35.8,26.2,40.5,32.5,25.0,100,88,77,30.14,29.88,15,3,15,0.00
2013-2-26,35.2,34.1,32.7,34.2,33.3,31.0,100,97,88,29.88,29.49,20,3,20,0.00
2013-2-27,34.5,33.2,31.5,34.5,33.2,31.5,100,100,100,29.82,29.58,0,0,0,0.20
2013-2-28,35.8,33.8,32.5,35.8,33.7,32.5,100,100,94,30.11,29.82,17,3,17,0.16
2013-3-1,32.4,27.9,24.8,32.4,27.0,24.8,100,97,88,30.23,30.09,17,6,17,0.00
2013-3-2,30.0,24.3,15.4,26.8,22.0,13.3,100,91,84,30.23,30.17,19,5,19,0.00
2013-3-3,39.0,25.3,10.9,34.6,22.4,9.7,100,89,80,30.20,30.09,8,1,8,0.16
2013-3-4,39.9,32.3,26.8,34.6,29.2,21.6,100,88,80,30.11,29.91,16,5,16,0.00
2013-3-5,34.2,32.2,28.0,34.2,32.1,28.0,100,99,94,30.06,29.85,11,1,11,0.00
2013-3-6,32.5,28.2,25.0,29.2,26.4,23.8,100,93,88,30.35,30.09,20,5,20,0.00
2013-3-7,38.1,30.6,25.5,33.7,28.0,23.3,100,90,84,30.41,30.32,8,1,8,0.12
2013-3-8,45.7,36.0,26.6,38.9,32.3,24.7,100,86,77,30.44,30.23,13,4,13,0.00
2013-3-9,51.6,42.7,36.9,43.7,38.5,32.5,100,86,74,30.26,29.82,16,6,16,0.35
2013-3-10,55.0,50.3,44.8,54.9,50.2,42.7,100,99,84,29.85,29.61,16,3,16,1.61
2013-3-11,50.2,37.6,30.9,50.2,37.6,30.4,100,100,98,29.94,29.67,17,4,17,0.04
2013-3-12,40.6,31.5,25.2,35.4,28.9,23.8,100,90,80,30.14,29.94,20,4,20,0.00
2013-3-13,38.5,28.8,22.5,33.9,26.0,20.8,94,89,84,30.38,30.14,21,5,21,0.00
2013-3-14,45.5,33.5,23.4,38.8,29.9,22.0,94,87,77,30.38,30.09,14,3,14,0.00
2013-3-15,54.1,42.7,31.6,45.2,38.1,28.9,100,85,70,30.09,29.70,10,2,10,0.00
2013-3-16,44.4,36.9,31.3,44.2,34.9,28.0,100,93,80,30.14,29.70,17,5,17,0.00
2013-3-17,37.9,33.0,29.7,33.5,29.5,26.4,88,87,84,30.20,29.94,16,5,16,0.00
2013-3-18,40.1,32.8,25.2,39.0,31.8,22.9,100,96,80,29.94,29.70,22,5,22,0.08
2013-3-19,42.6,29.5,19.4,37.0,25.9,16.3,94,87,80,30.17,29.91,23,6,23,0.00
2013-3-20,32.4,24.1,15.3,29.1,21.0,13.1,91,88,80,30.20,30.11,22,6,22,0.00
2013-3-21,39.6,25.2,12.4,34.6,22.1,11.1,94,88,80,30.11,30.03,13,3,13,0.00
2013-3-22,47.7,33.1,21.6,40.8,29.0,19.1,94,85,77,30.09,30.03,12,1,12,0.00
2013-3-23,51.1,38.9,30.4,42.9,34.0,27.1,88,83,74,30.11,30.00,13,3,13,0.00
2013-3-24,33.3,31.8,30.2,33.3,31.5,27.3,100,99,88,30.03,29.67,21,6,21,0.00
2013-3-25,37.0,32.0,28.0,32.7,30.0,25.8,100,93,84,30.14,29.79,22,7,22,0.08
2013-3-26,39.4,34.9,31.1,34.6,31.2,27.8,88,86,80,30.32,30.14,16,3,16,0.00
2013-3-27,48.7,37.5,28.6,41.2,32.9,25.4,88,84,74,30.38,30.29,11,2,11,0.00
2013-3-28,53.6,40.4,27.3,45.2,35.0,25.0,91,81,74,30.38,30.29,9,1,9,0.00
2013-3-29,61.7,48.1,36.9,50.4,40.6,32.5,84,75,66,30.32,30.23,8,1,8,0.00
2013-3-30,57.6,48.2,38.1,47.3,40.7,33.7,84,76,66,30.26,29.94,15,4,15,0.00
2013-3-31,63.0,51.4,39.7,51.1,45.4,34.2,100,81,63,30.00,29.82,18,5,18,0.00
2013-4-1,45.9,36.8,29.1,39.1,32.4,25.9,88,84,77,30.26,29.97,20,6,20,0.00
2013-4-2,50.4,36.3,23.9,42.2,31.2,19.8,91,82,74,30.35,30.23,17,4,17,0.00
2013-4-3,55.4,40.6,27.1,45.8,34.8,22.0,91,80,70,30.47,30.32,11,2,11,0.00
2013-4-4,63.3,47.9,32.7,51.1,40.4,29.4,88,76,63,30.32,30.06,10,2,10,0.00
2013-4-5,63.5,50.0,38.5,51.1,41.9,33.7,84,74,63,30.23,30.06,14,4,14,0.00
2013-4-6,71.1,57.2,42.6,56.3,46.7,37.0,80,69,60,30.11,29.70,24,7,24,0.00
2013-4-7,72.7,57.7,42.4,56.6,48.0,39.9,100,71,56,30.00,29.79,13,2,13,0.00
2013-4-8,76.1,65.0,57.2,62.4,56.2,46.5,100,75,56,29.94,29.67,19,4,19,0.63
2013-4-9,79.7,68.1,53.4,65.0,58.2,44.2,100,72,60,29.97,29.85,20,5,20,0.00
2013-4-10,53.2,46.9,41.7,49.8,46.2,41.7,100,97,80,29.97,29.79,24,6,24,2.24
2013-4-11,51.8,45.9,38.1,51.8,44.6,33.7,100,95,77,29.76,29.67,20,4,20,0.08
2013-4-12,43.0,39.8,37.4,40.8,35.9,33.0,100,86,80,29.97,29.70,17,4,17,0.08
2013-4-13,54.9,44.8,35.8,45.3,38.3,31.4,84,78,70,30.06,29.97,16,4,17,0.00
2013-4-14,76.3,60.8,45.5,62.8,49.9,38.7,77,68,56,30.03,29.70,22,6,22,0.00
2013-4-15,65.5,56.7,47.3,60.4,53.3,42.7,100,89,63,30.06,29.76,19,4,19,0.51
2013-4-16,55.2,48.2,42.3,45.6,43.0,39.1,100,83,70,30.26,30.06,15,3,15,0.35
2013-4-17,59.0,49.4,44.8,59.0,46.1,38.0,100,89,74,30.29,29.79,25,5,25,3.27
2013-4-18,64.0,54.8,39.0,64.0,54.3,33.7,100,98,84,29.79,29.48,23,6,23,1.61
2013-4-19,41.0,38.2,36.1,36.6,33.6,31.8,91,83,80,30.01,29.60,24,7,24,0.00
2013-4-20,53.6,40.7,28.6,45.2,35.5,25.4,100,82,74,30.37,30.01,11,2,11,0.00
2013-4-21,59.4,48.2,37.8,48.2,40.7,33.2,84,76,66,30.45,30.28,17,5,17,0.00
2013-4-22,69.8,57.2,43.5,54.9,46.8,37.8,80,69,60,30.31,30.04,15,5,15,0.00
2013-4-23,58.8,47.3,39.2,53.2,45.4,39.2,100,94,66,30.10,29.95,18,4,18,0.83
2013-4-24,53.6,43.9,36.9,45.0,39.7,36.7,100,86,70,30.19,29.98,15,4,15,0.00
2013-4-25,59.0,48.5,40.5,47.9,41.0,34.9,80,75,66,30.34,30.16,20,4,20,0.00
2013-4-26,66.4,60.4,47.3,53.1,49.1,40.5,77,66,60,30.31,30.22,14,5,14,0.00
2013-4-27,65.3,55.5,46.4,54.5,49.5,42.6,100,82,63,30.28,29.95,12,2,12,0.08
2013-4-28,72.0,59.7,53.4,63.0,54.5,48.0,100,85,60,29.95,29.83,11,2,11,0.08
2013-4-29,75.4,63.3,49.8,61.9,55.6,49.8,100,78,60,29.89,29.75,17,5,17,0.00
2013-4-30,87.1,73.5,62.2,69.5,62.0,54.4,98,69,56,29.95,29.75,17,6,17,0.00
2013-5-1,84.9,73.8,61.2,67.3,59.5,49.8,74,61,56,30.13,29.95,13,2,13,0.00
2013-5-2,70.5,62.6,49.1,55.8,51.2,42.2,100,67,60,30.16,30.07,17,4,17,0.00
2013-5-3,61.9,52.5,44.4,61.9,52.5,44.4,100,100,100,30.07,29.80,18,3,18,1.42
2013-5-4,66.4,60.9,55.6,64.8,57.7,54.4,100,90,70,30.01,29.89,9,1,9,1.42
2013-5-5,75.2,62.6,54.5,61.8,55.5,47.9,100,80,56,30.01,29.89,15,2,15,0.00
2013-5-6,81.7,66.5,55.6,66.1,54.6,46.2,77,66,56,30.01,29.92,15,2,15,0.00
2013-5-7,83.7,68.5,54.1,66.7,55.2,44.6,70,63,56,30.04,29.95,10,1,10,0.00
2013-5-8,84.6,70.4,55.4,67.0,56.7,45.8,70,62,56,30.01,29.95,8,0,8,0.00
2013-5-9,73.2,64.9,62.4,67.5,60.2,51.0,100,86,60,29.98,29.80,17,1,17,0.39
2013-5-10,63.9,55.9,51.3,63.9,54.5,48.7,100,95,88,29.98,29.80,15,3,15,0.00
2013-5-11,63.0,54.2,43.9,54.9,47.8,37.8,100,80,63,30.07,29.89,28,3,28,0.00
2013-5-12,61.2,48.9,36.3,49.9,41.1,32.0,84,75,66,30.13,30.07,17,3,17,0.00
2013-5-13,72.7,57.7,39.2,56.6,46.9,33.7,80,68,56,30.16,29.98,8,1,8,0.00
2013-5-14,92.8,73.9,56.5,71.4,59.3,46.2,70,61,49,29.98,29.72,15,4,15,0.00
2013-5-15,87.1,76.6,68.0,69.5,61.6,53.4,63,60,56,29.89,29.75,17,2,17,0.00
2013-5-16,86.9,72.6,60.4,69.3,59.4,50.0,84,64,56,29.95,29.86,9,1,9,0.08
2013-5-17,82.6,71.9,61.5,67.3,60.4,50.3,100,68,56,30.01,29.92,10,1,10,0.59
2013-5-18,84.2,73.2,65.3,70.7,64.8,58.3,100,77,56,30.04,29.92,9,1,9,0.59
2013-5-19,90.1,77.7,65.8,70.4,65.0,57.9,100,66,52,29.95,29.78,17,3,17,0.00
2013-5-20,85.5,74.0,63.5,68.9,63.5,55.8,100,72,56,29.86,29.72,20,5,20,1.50
2013-5-21,83.1,72.5,63.5,66.7,63.5,58.2,100,76,56,29.75,29.69,13,3,13,0.00
2013-5-22,73.0,66.9,60.8,65.4,57.4,49.8,100,72,56,29.80,29.66,13,1,13,0.24
2013-5-23,65.8,58.9,51.8,62.0,52.9,44.4,100,81,63,30.22,29.80,17,3,17,0.24
2013-5-24,70.5,55.8,41.2,55.6,46.7,35.7,98,72,60,30.40,30.22,11,2,11,0.00
2013-5-25,54.3,51.5,48.2,54.3,47.1,40.1,100,86,70,30.37,30.19,13,1,13,0.47
2013-5-26,67.3,57.4,51.4,61.3,54.3,46.2,100,90,70,30.25,30.04,10,2,13,2.44
2013-5-27,71.8,64.5,59.0,71.8,64.4,59.0,100,100,84,30.04,29.80,13,1,13,1.06
2013-5-28,78.1,70.5,65.8,73.4,65.7,58.2,100,86,63,29.89,29.75,18,3,18,0.35
2013-5-29,87.4,79.8,65.3,69.8,65.9,61.4,100,64,56,29.92,29.83,14,4,14,0.87
2013-5-30,83.8,73.7,63.1,66.7,63.0,53.5,100,71,56,29.92,29.80,19,4,19,1.42
2013-5-31,74.8,69.3,64.0,74.8,67.4,62.1,100,94,74,29.89,29.72,15,2,15,0.43
2013-6-1,74.7,67.3,61.9,74.5,63.8,54.4,100,89,63,29.80,29.69,11,2,11,0.59
2013-6-2,62.6,60.6,55.9,62.4,55.2,48.8,100,83,74,30.01,29.80,15,1,15,0.00
2013-6-3,71.1,60.3,48.7,57.7,51.1,46.2,100,74,60,30.10,30.01,9,1,9,0.00
2013-6-4,75.0,65.5,54.5,61.6,53.0,0.0,70,64,56,30.10,29.98,10,1,10,0.00
2013-6-5,81.1,68.9,57.2,65.7,57.1,49.6,88,67,56,30.04,29.89,8,1,8,0.00
2013-6-6,75.4,64.9,58.6,62.2,54.9,48.0,100,70,60,29.89,29.83,10,2,10,0.04
2013-6-7,77.9,65.7,55.0,64.3,53.6,45.5,77,65,56,29.92,29.86,13,2,13,0.00
2013-6-8,80.4,67.9,53.4,64.9,54.9,44.1,74,64,56,29.95,29.89,9,1,9,0.00
2013-6-9,82.8,70.3,63.7,66.7,57.4,51.4,80,64,56,29.95,29.78,14,2,14,0.00
2013-6-10,82.8,70.5,61.3,66.6,61.3,52.4,100,74,56,29.89,29.75,10,1,10,0.00
2013-6-11,89.2,75.0,61.2,70.0,63.0,54.4,98,68,52,29.95,29.83,10,1,10,0.04
2013-6-12,96.4,86.0,72.1,74.0,68.5,60.9,84,57,49,29.89,29.63,13,3,13,0.00
2013-6-13,86.5,75.5,67.5,69.0,62.6,52.9,98,65,56,30.01,29.72,19,3,19,0.00
2013-6-14,82.6,70.8,59.2,66.6,57.1,47.9,66,62,56,30.13,29.98,11,1,11,0.00
2013-6-15,77.9,71.8,67.3,68.4,60.2,54.2,100,68,56,30.07,29.89,17,2,17,0.87
2013-6-16,86.5,73.7,65.5,73.1,65.9,60.0,100,79,56,29.98,29.89,8,0,8,0.00
2013-6-17,89.2,77.3,65.5,76.8,66.8,60.0,100,73,52,29.98,29.89,6,0,6,0.00
2013-6-18,85.5,74.0,65.1,68.0,61.4,51.7,88,65,56,30.04,29.89,13,3,13,0.00
2013-6-19,88.7,72.6,57.7,70.0,58.4,46.7,66,61,52,30.10,30.04,10,2,10,0.00
2013-6-20,92.5,79.7,66.2,71.4,63.8,51.7,77,59,49,30.13,30.04,10,2,10,0.00
2013-6-21,90.7,77.1,68.9,73.1,65.4,59.2,100,69,52,30.13,29.98,25,3,25,0.35
2013-6-22,87.1,77.8,69.6,69.5,64.8,58.2,74,65,56,30.07,29.98,12,2,12,0.00
2013-6-23,90.3,75.0,68.5,74.8,67.4,58.2,100,80,52,30.04,29.92,12,2,12,1.02
2013-6-24,89.4,73.6,67.1,77.4,69.4,60.4,100,89,52,30.13,29.89,24,1,24,2.64
2013-6-25,88.3,78.2,71.1,75.8,68.8,61.1,100,75,52,29.95,29.80,10,2,10,0.16
2013-6-26,89.6,77.9,68.5,75.6,69.6,63.5,100,79,52,29.86,29.72,11,1,11,0.16
2013-6-27,91.0,80.5,73.0,75.6,69.4,60.0,100,72,52,29.86,29.78,12,1,12,0.00
2013-6-28,87.4,76.4,66.9,69.7,63.2,55.1,91,65,56,29.80,29.69,17,3,17,0.00
2013-6-29,76.3,68.9,64.6,71.1,60.0,53.7,100,74,60,29.78,29.63,16,3,16,0.43
2013-6-30,83.3,70.5,61.0,66.7,59.1,52.5,88,68,56,29.98,29.78,15,4,15,0.43
2013-7-1,82.6,70.5,59.7,66.7,56.7,48.6,66,62,56,30.04,29.95,17,4,17,0.00
2013-7-2,82.8,67.9,59.9,66.7,54.4,48.7,66,62,56,30.04,30.01,12,2,12,0.00
2013-7-3,82.2,72.0,59.9,66.7,58.9,50.0,84,64,56,30.07,30.01,10,1,10,0.00
2013-7-4,87.1,80.2,70.5,69.3,64.2,55.1,63,58,56,30.10,30.01,10,2,10,0.00
2013-7-5,88.2,78.9,65.7,71.6,65.2,55.1,100,64,52,30.10,30.01,8,1,8,0.00
2013-7-6,87.6,76.3,66.6,71.6,64.3,54.9,100,68,56,30.07,29.98,7,1,8,0.00
2013-7-7,92.3,80.6,68.4,71.4,65.0,58.2,77,60,49,30.04,30.01,10,2,10,0.00
2013-7-8,88.3,79.5,72.3,79.3,67.8,60.9,100,69,52,30.07,29.98,13,2,13,0.39
2013-7-9,90.7,82.9,77.2,75.8,70.2,65.1,91,67,52,30.01,29.89,8,1,8,0.00
2013-7-10,90.7,81.3,69.6,73.4,66.8,54.9,84,62,52,30.01,29.83,14,2,14,0.00
2013-7-11,86.4,74.2,64.2,68.8,60.4,52.2,88,63,56,30.10,30.01,10,1,10,0.00
2013-7-12,88.9,74.7,61.2,70.0,60.3,49.8,84,61,52,30.16,30.07,8,0,9,0.00
2013-7-13,88.7,76.9,65.5,70.0,61.5,51.7,66,59,52,30.13,30.07,10,1,11,0.00
2013-7-14,93.0,80.8,67.6,71.4,65.1,55.1,80,60,49,30.19,30.10,9,1,9,0.00
2013-7-15,93.0,81.9,73.0,76.1,68.0,61.4,100,64,49,30.25,30.16,7,1,8,0.00
2013-7-16,93.6,83.7,75.0,77.8,69.9,63.5,100,65,49,30.31,30.22,8,1,8,0.00
2013-7-17,97.9,85.2,74.3,74.3,68.9,62.4,88,59,46,30.34,30.19,6,0,6,0.00
2013-7-18,97.9,86.8,76.1,74.3,69.6,63.5,80,58,46,30.19,29.98,9,1,9,0.00
2013-7-19,98.2,87.4,77.0,74.3,69.2,63.5,70,55,46,29.98,29.83,13,2,13,0.00
2013-7-20,92.8,82.5,73.9,71.4,65.9,60.6,63,58,49,29.92,29.83,11,2,11,0.00
2013-7-21,81.1,75.7,69.8,70.1,64.3,60.0,98,69,60,29.95,29.83,7,0,7,0.04
2013-7-22,92.8,79.2,67.8,75.9,68.2,59.2,100,72,49,29.89,29.78,24,1,24,0.20
2013-7-23,83.1,72.9,66.2,70.0,63.7,51.7,100,75,56,29.95,29.75,14,2,14,0.04
2013-7-24,81.1,69.4,59.4,65.7,57.4,50.2,91,67,56,30.07,29.95,12,2,12,0.00
2013-7-25,84.9,71.5,56.8,67.5,58.0,46.2,77,63,56,30.10,30.04,10,0,10,0.00
2013-7-26,72.9,67.6,60.8,72.2,61.0,51.4,100,81,60,30.07,29.92,9,1,9,0.87
2013-7-27,69.6,62.4,57.2,60.8,54.2,46.2,100,76,60,29.95,29.92,14,2,14,0.00
2013-7-28,74.8,63.6,53.1,61.4,51.3,44.1,74,65,56,30.04,29.92,12,1,12,0.00
2013-7-29,80.8,67.7,54.3,65.4,56.4,46.2,94,68,56,30.16,30.04,6,0,6,0.00
2013-7-30,69.3,67.2,64.2,68.7,62.4,51.7,100,87,60,30.16,30.04,8,0,8,0.79
2013-7-31,78.6,70.7,67.5,73.8,67.1,60.2,100,89,63,30.04,30.01,9,0,9,0.04
2013-8-1,85.3,74.0,63.9,72.9,64.6,58.3,100,75,56,30.07,29.98,10,1,11,0.00
2013-8-2,88.0,76.7,68.5,71.8,64.2,58.2,100,66,52,29.98,29.92,8,1,8,0.47
2013-8-3,86.0,73.7,64.8,70.0,64.0,51.7,100,74,56,30.13,29.98,12,2,12,0.08
2013-8-4,84.7,72.3,61.5,67.2,58.8,51.4,74,63,56,30.19,30.10,8,1,8,0.00
2013-8-5,77.0,69.9,63.3,65.6,59.2,51.7,84,69,60,30.10,29.89,9,1,9,0.12
2013-8-6,90.3,77.0,68.0,75.2,67.8,63.5,100,76,52,29.92,29.83,8,1,8,0.00
2013-8-7,91.2,80.0,71.8,77.2,68.7,60.0,100,70,52,29.95,29.83,13,2,230,0.00
2013-8-8,85.8,74.5,67.3,69.0,63.6,55.9,98,70,56,30.01,29.92,12,3,12,0.00
2013-8-9,85.5,74.3,61.5,68.0,60.3,49.8,74,62,56,30.10,29.98,6,0,6,0.00
2013-8-10,85.3,74.2,63.0,67.8,60.8,51.7,84,64,56,30.16,30.07,11,2,11,0.00
2013-8-11,87.6,74.5,60.1,70.0,61.1,49.8,84,64,56,30.13,30.07,8,1,8,0.00
2013-8-12,84.4,75.2,67.3,69.6,62.7,57.3,80,66,56,30.07,29.92,11,1,11,0.00
2013-8-13,78.4,68.6,58.5,64.6,57.5,47.4,88,68,56,30.13,29.95,15,3,15,0.00
2013-8-14,79.9,66.0,53.6,65.0,55.1,45.8,94,69,56,30.19,30.13,11,1,11,0.00
2013-8-15,79.7,67.1,59.2,65.0,54.2,48.0,66,63,56,30.16,30.07,8,0,8,0.00
2013-8-16,85.6,71.6,60.6,68.0,59.6,51.5,91,67,56,30.16,30.10,10,1,10,0.00
2013-8-17,83.3,71.0,60.1,66.7,59.0,49.8,100,67,56,30.22,30.16,13,1,13,0.00
2013-8-18,87.1,72.7,60.8,69.5,60.7,50.2,100,68,56,30.19,30.10,9,1,9,0.00
2013-8-19,88.3,75.1,63.5,70.0,62.4,54.6,84,65,52,30.13,30.04,8,0,8,0.00
2013-8-20,90.3,77.5,66.4,70.6,64.4,58.5,84,65,52,30.13,30.04,8,1,8,0.00
2013-8-21,92.5,80.0,69.3,71.4,65.8,59.5,80,63,49,30.10,30.01,10,1,10,0.00
2013-8-22,83.1,75.2,70.5,74.1,65.0,60.0,100,72,56,30.13,30.01,16,1,16,0.16
2013-8-23,88.0,75.5,67.6,74.3,66.2,55.4,100,75,52,30.16,30.10,10,2,10,0.00
2013-8-24,90.3,77.1,63.3,70.6,62.6,51.4,80,62,52,30.22,30.13,10,2,10,0.00
2013-8-25,93.6,79.9,68.0,71.4,64.5,57.9,70,60,49,30.25,30.16,10,2,10,0.00
2013-8-26,95.4,82.1,68.9,73.2,65.9,58.2,77,59,49,30.19,30.01,9,1,9,0.00
2013-8-27,97.7,84.7,74.1,74.3,68.3,62.8,80,59,46,30.04,29.92,13,2,13,0.00
2013-8-28,97.9,84.9,75.2,74.3,68.1,61.8,70,58,46,30.01,29.92,13,2,13,0.00
2013-8-29,89.8,78.2,70.3,75.6,67.4,61.1,100,71,52,30.10,29.95,11,1,11,0.00
2013-8-30,101.7,85.3,72.5,75.4,69.0,62.6,88,60,42,29.98,29.80,17,1,17,0.00
2013-8-31,96.8,81.2,71.2,74.3,65.7,55.3,80,60,49,29.83,29.78,11,2,11,0.00
2013-9-1,93.6,78.7,69.3,77.0,68.3,60.0,100,74,49,29.86,29.75,14,2,14,0.00
2013-9-2,86.7,73.0,63.7,69.2,60.1,50.9,84,65,56,29.98,29.83,17,3,17,0.00
2013-9-3,82.0,68.0,57.0,66.6,57.6,49.8,91,70,56,30.10,29.98,8,1,8,0.00
2013-9-4,89.4,72.5,58.3,70.0,61.2,53.5,100,70,52,30.16,30.04,8,0,8,0.00
2013-9-5,91.9,76.1,63.5,71.4,61.9,52.0,80,62,49,30.22,30.13,10,1,10,0.00
2013-9-6,90.9,75.8,62.1,70.9,60.9,49.8,74,60,52,30.19,30.01,9,1,9,0.00
2013-9-7,91.6,78.5,66.0,71.4,64.3,57.0,80,62,49,30.04,29.89,10,1,10,0.00
2013-9-8,91.6,80.2,72.3,71.4,65.4,60.0,77,61,49,29.98,29.89,10,1,10,0.00
2013-9-9,100.0,84.3,72.1,75.2,70.2,61.1,100,66,46,29.92,29.86,9,2,9,0.00
2013-9-10,98.2,85.8,74.1,74.3,67.7,60.7,63,56,46,30.07,29.92,13,2,13,0.00
2013-9-11,96.4,82.0,73.2,74.2,65.8,60.0,74,59,49,30.10,30.01,11,1,11,0.00
2013-9-12,85.8,74.5,62.8,73.1,65.1,50.0,100,75,56,30.10,30.01,19,2,19,0.04
2013-9-13,75.6,63.3,55.8,61.9,51.1,46.0,77,65,56,30.19,30.07,14,3,14,0.00
2013-9-14,76.8,62.2,48.4,63.3,50.4,40.3,74,66,56,30.16,30.01,8,1,8,0.00
2013-9-15,67.6,62.0,56.8,63.1,53.8,48.6,100,75,60,30.13,29.95,13,2,13,0.04
2013-9-16,75.4,62.8,53.4,61.9,55.0,44.1,100,78,56,30.31,30.13,12,3,12,0.04
2013-9-17,77.9,63.6,50.9,64.1,54.3,44.7,100,74,56,30.28,30.07,8,1,10,0.00
2013-9-18,89.6,75.3,64.2,70.0,61.0,51.7,74,61,52,30.07,29.92,13,3,13,0.00
2013-9-19,93.9,80.9,68.0,71.9,66.4,58.2,91,62,49,29.95,29.80,14,3,14,0.31
2013-9-20,72.5,67.3,57.9,71.4,61.5,48.0,100,83,60,29.92,29.83,13,1,13,0.16
2013-9-21,73.4,60.7,51.1,56.8,51.5,45.3,100,73,56,29.92,29.86,13,2,13,0.00
2013-9-22,75.7,61.0,48.7,62.3,50.6,44.0,91,70,56,30.04,29.92,10,1,10,0.00
2013-9-23,80.1,63.3,48.2,64.8,52.0,40.7,91,67,56,30.04,29.95,9,1,9,0.00
2013-9-24,81.3,66.1,52.9,65.9,53.6,44.1,74,64,56,29.98,29.86,11,1,11,0.00
2013-9-25,84.6,67.2,55.4,67.2,54.4,45.8,77,64,56,29.92,29.86,11,3,11,0.00
2013-9-26,87.8,69.9,55.9,70.0,57.5,47.4,88,66,52,30.04,29.92,9,1,9,0.00
2013-9-27,86.9,71.8,57.9,69.3,57.4,46.8,66,61,56,30.13,30.04,9,1,9,0.00
2013-9-28,85.5,70.7,60.3,68.7,59.0,49.1,100,67,56,30.04,29.92,15,3,15,0.87
2013-9-29,75.2,61.6,51.3,62.2,54.1,46.2,100,79,56,30.07,29.98,12,2,12,0.00
2013-9-30,80.1,64.8,50.4,65.0,54.9,44.0,98,72,56,29.98,29.86,8,1,8,0.00
2013-10-1,83.3,70.3,62.4,69.3,63.8,58.5,100,82,56,30.01,29.89,10,2,10,0.00
2013-10-2,85.5,71.5,66.2,75.2,66.4,60.0,100,86,56,30.07,29.98,8,0,8,0.00
2013-10-3,84.7,71.2,65.1,79.0,67.7,59.2,100,90,56,29.98,29.86,15,1,15,1.10
2013-10-4,88.5,75.2,68.4,74.8,67.1,61.1,100,79,52,29.98,29.89,9,1,9,0.04
2013-10-5,77.5,71.0,57.7,73.6,65.3,56.1,100,83,63,29.92,29.80,12,2,12,0.00
2013-10-6,58.1,51.4,46.9,57.6,46.4,40.1,100,84,66,29.83,29.75,12,1,12,0.00
2013-10-7,72.5,57.1,46.0,56.6,49.6,45.5,100,78,56,30.10,29.80,10,1,10,0.00
2013-10-8,79.7,62.5,48.2,65.0,52.7,42.6,100,72,56,30.19,30.10,8,1,8,0.00
2013-10-9,77.7,61.8,49.3,64.1,50.5,41.2,88,67,56,30.19,30.10,8,0,8,0.00
2013-10-10,79.5,64.8,51.8,65.0,53.7,43.8,91,68,56,30.13,30.01,10,1,10,0.00
2013-10-11,81.1,68.4,58.5,65.5,57.0,49.8,88,68,56,30.04,29.89,17,2,17,0.00
2013-10-12,75.0,64.8,57.6,66.2,55.9,0.0,100,74,56,30.19,29.92,10,2,10,0.24
2013-10-13,70.7,55.9,44.8,55.9,45.9,38.0,77,70,60,30.37,30.19,10,1,10,0.24
2013-10-14,69.8,55.6,42.8,55.1,45.9,37.6,98,71,60,30.34,30.04,10,1,10,0.00
2013-10-15,71.2,60.7,49.8,66.6,52.8,41.7,100,76,60,30.04,29.80,13,3,13,0.00
2013-10-16,54.5,51.0,46.9,45.2,42.8,40.1,77,74,70,29.95,29.89,14,2,14,0.00
2013-10-17,63.9,51.7,45.1,55.2,45.5,38.4,100,80,63,29.95,29.80,12,1,12,0.12
2013-10-18,56.3,47.4,42.3,46.7,41.6,37.8,100,81,70,29.98,29.83,11,1,11,0.00
2013-10-19,57.2,47.8,38.7,47.3,42.6,38.5,100,83,66,29.95,29.80,13,2,13,0.00
2013-10-20,71.8,54.5,39.9,56.3,45.2,34.4,98,71,56,29.83,29.72,15,2,15,0.00
2013-10-21,57.4,45.9,33.8,47.3,39.2,30.5,88,78,66,29.98,29.80,15,2,15,0.00
2013-10-22,42.3,37.1,31.5,42.3,35.2,28.2,100,93,80,29.98,29.78,12,1,12,0.67
2013-10-23,47.7,39.4,33.4,40.8,36.1,32.7,100,88,77,30.04,29.92,13,2,13,0.00
2013-10-24,45.0,37.3,31.3,38.8,33.4,28.0,100,86,77,30.31,30.01,14,2,14,0.00
2013-10-25,52.3,34.4,26.1,44.1,30.3,23.8,91,85,74,30.37,30.07,10,1,10,0.00
2013-10-26,53.1,42.1,35.4,44.8,36.3,31.2,88,80,74,30.07,29.92,13,3,13,0.00
2013-10-27,60.1,43.6,29.8,48.9,37.3,26.6,88,79,66,30.07,29.95,8,1,8,0.00
2013-10-28,66.7,48.4,36.0,53.1,40.8,31.6,84,75,60,30.28,30.01,11,1,11,0.00
2013-10-29,57.2,47.5,38.8,53.1,44.1,37.8,100,89,66,30.28,30.07,10,1,10,0.00
2013-10-30,64.8,58.1,53.1,64.8,58.1,53.1,100,100,100,30.07,29.78,10,1,11,1.69
2013-10-31,64.6,57.5,45.0,64.6,57.5,45.0,100,100,100,29.78,29.27,15,3,15,0.43
2013-11-1,52.9,47.2,41.7,50.7,45.6,41.7,100,95,74,29.78,29.51,11,1,11,0.00
2013-11-2,52.9,43.2,35.6,44.7,39.4,31.2,100,87,74,30.13,29.75,15,2,15,0.04
2013-11-3,56.3,42.8,31.1,46.7,38.1,30.5,100,84,70,30.25,30.10,11,1,11,0.00
2013-11-4,58.5,51.6,45.3,47.4,43.0,38.5,77,72,66,30.16,30.01,17,4,17,0.00
2013-11-5,55.9,53.6,51.6,55.8,51.4,44.1,100,93,70,30.22,29.92,14,4,14,0.28
2013-11-6,57.7,46.6,34.3,57.7,45.7,31.0,100,96,80,30.19,29.83,15,3,15,0.79
2013-11-7,50.7,36.8,27.3,42.6,33.4,27.3,100,88,74,30.25,30.16,14,1,14,0.00
2013-11-8,49.3,41.7,29.1,42.4,37.1,29.1,100,85,74,30.28,29.92,18,3,18,0.00
2013-11-9,63.7,51.9,42.3,51.1,43.5,36.7,91,73,63,30.16,29.86,21,5,21,0.00
2013-11-10,53.4,42.2,33.4,45.0,36.5,30.1,88,80,74,30.37,30.16,13,2,13,0.00
2013-11-11,51.1,39.8,24.4,42.9,35.9,24.3,100,87,74,30.45,30.07,15,3,18,0.04
2013-11-12,33.6,25.0,19.0,30.3,23.0,18.3,100,92,88,30.66,30.45,13,1,13,0.00
2013-11-13,42.4,29.9,18.5,36.9,27.0,18.0,98,89,80,30.57,30.13,16,4,16,0.00
2013-11-14,53.2,41.2,30.6,44.8,35.6,27.3,88,81,74,30.13,29.89,15,7,15,0.00
2013-11-15,48.6,43.2,37.2,41.2,37.2,32.8,84,79,74,29.95,29.86,13,4,13,0.00
2013-11-16,60.1,54.1,43.0,59.2,52.9,39.5,100,96,77,29.86,29.57,22,8,22,0.08
2013-11-17,69.1,57.1,44.2,65.3,52.5,37.8,100,85,66,29.83,29.21,30,7,30,1.46
2013-11-18,49.8,41.6,31.1,41.7,36.2,27.8,91,81,74,30.22,29.83,19,4,19,0.00
2013-11-19,49.6,37.1,26.6,41.3,32.5,24.3,91,84,74,30.31,30.19,13,2,13,0.00
2013-11-20,42.3,37.9,33.6,42.1,35.1,30.3,100,90,80,30.19,30.01,13,5,13,0.24
2013-11-21,48.7,46.2,42.1,48.7,44.7,38.4,100,95,77,30.19,30.01,10,1,10,0.12
2013-11-22,42.8,35.7,25.2,42.8,34.0,25.2,100,94,84,30.45,30.19,17,5,17,0.04
2013-11-23,26.1,21.6,14.2,25.2,19.4,12.0,100,91,84,30.66,30.42,22,5,22,0.04
2013-11-24,30.2,19.8,9.5,26.9,17.0,8.2,94,89,80,30.69,30.31,12,3,12,0.00
2013-11-25,33.6,29.0,22.6,30.3,25.5,19.1,91,87,80,30.31,30.04,15,5,15,0.00
2013-11-26,36.0,27.8,17.2,32.1,24.7,14.7,91,88,80,30.16,30.01,21,4,21,0.00
2013-11-27,30.0,20.4,12.6,26.8,17.6,11.3,94,89,80,30.25,30.13,17,4,17,0.00
2013-11-28,40.5,28.5,20.5,34.9,24.7,17.4,91,86,80,30.42,30.13,13,4,13,0.00
2013-11-29,39.9,29.0,18.3,34.6,25.8,15.4,98,88,80,30.54,30.31,10,2,10,0.00
2013-11-30,53.2,40.0,32.4,45.0,34.9,29.1,88,82,74,30.31,30.01,12,4,12,0.00
2013-12-1,51.1,39.6,32.4,42.9,34.8,29.1,98,83,74,30.07,29.92,8,1,8,0.00
2013-12-2,45.7,39.6,33.6,42.1,36.0,30.7,100,87,77,29.92,29.63,10,3,10,0.00
2013-12-3,51.3,45.9,39.9,51.3,45.9,39.9,100,100,100,29.66,29.60,10,3,10,0.00
2013-12-4,55.6,49.2,34.0,55.6,49.2,33.8,100,100,100,29.75,29.45,15,5,17,0.00
2013-12-5,33.8,23.9,19.9,33.6,21.4,16.8,100,90,84,30.25,29.75,17,5,17,0.00
2013-12-6,19.9,16.0,11.1,16.8,13.7,9.7,94,91,88,30.48,30.19,15,6,15,0.00
2013-12-7,22.6,13.4,6.3,19.5,11.6,5.0,94,92,88,30.63,30.45,12,3,12,0.00
2013-12-8,24.6,20.7,13.5,24.6,19.7,12.0,100,96,88,30.45,29.92,15,4,15,0.00
2013-12-9,24.1,16.4,4.8,24.1,14.9,3.6,100,94,88,30.22,29.92,16,4,16,0.00
2013-12-10,27.3,16.8,4.6,22.4,14.1,3.4,94,89,80,30.25,30.01,18,4,18,0.00
2013-12-11,22.1,15.8,2.8,20.6,13.5,1.6,98,91,88,30.54,30.16,17,3,17,0.00
2013-12-12,31.1,16.6,1.8,27.8,13.9,0.6,94,89,80,30.51,30.16,13,3,13,0.00
2013-12-13,38.1,28.8,20.3,33.5,26.1,17.2,100,90,84,30.16,29.95,10,1,10,0.00
2013-12-14,32.7,28.5,19.8,32.7,28.5,19.6,100,100,100,30.10,29.86,14,3,14,0.00
2013-12-15,19.4,15.5,11.8,19.4,14.4,11.8,100,95,88,30.16,30.07,9,2,13,0.00
2013-12-16,21.2,17.9,12.7,21.2,17.4,12.7,100,98,94,30.16,30.01,11,1,11,0.00
2013-12-17,37.6,27.2,20.8,34.7,25.5,19.1,100,94,84,30.22,30.07,11,4,14,0.16
2013-12-18,38.1,28.9,15.3,33.7,25.5,13.1,98,87,84,30.22,29.89,17,5,19,0.16
2013-12-19,45.9,41.3,36.7,45.1,38.4,32.3,100,89,77,29.92,29.80,10,4,10,0.04
2013-12-20,46.0,36.8,30.4,46.0,36.8,30.4,100,100,100,29.89,29.75,11,3,11,0.20
2013-12-21,33.4,30.7,28.8,33.4,30.7,28.8,100,100,100,29.89,29.63,0,0,0,0.20
2013-12-22,33.6,29.3,19.4,33.6,29.3,19.4,100,100,100,30.22,29.63,0,0,0,0.00
2013-12-23,19.6,10.9,2.8,19.6,10.3,1.6,100,97,91,30.54,30.22,0,0,0,0.00
2013-12-24,20.3,9.1,-2.2,18.9,7.9,-3.4,100,94,88,30.60,30.34,0,0,0,0.00
2013-12-25,29.1,25.5,20.3,29.1,25.0,17.2,100,98,88,30.34,30.19,0,0,0,0.00
2013-12-26,37.8,30.0,18.7,33.4,27.3,18.2,100,90,84,30.34,30.19,13,2,13,0.04
2013-12-27,46.2,35.9,26.8,39.4,32.9,26.8,100,89,77,30.34,30.16,13,3,13,0.00
2013-12-28,54.5,41.8,33.6,45.2,36.6,30.5,100,82,70,30.19,29.92,13,5,13,0.00
2013-12-29,38.5,24.5,4.8,34.1,23.0,3.6,100,94,84,30.28,29.83,17,6,17,0.00
2013-12-30,15.4,8.2,-0.2,14.9,6.9,-1.4,100,94,91,30.37,30.22,12,1,12,0.00
2013-12-31,21.7,15.6,8.6,18.9,14.2,7.3,100,94,88,30.42,30.19,14,2,14,0.00
2014-1-1,23.4,19.7,14.4,22.0,19.1,14.4,100,98,94,30.25,30.16,15,5,15,0.00
2014-1-2,16.5,11.6,4.8,14.5,10.8,3.2,100,96,91,30.45,30.13,19,6,19,0.00